ORBCOMM-X 1 21576U 91050C 21099.90712134 .00000031 00000-0 23189-4 0 9995 2 21576 98.5366 162.0363 0004943 106.7277 253.4455 14.41644359561697 ORBCOMM FM 1 1 23545U 95017A 21099.58559664 .00000296 00000-0 58984-4 0 9995 2 23545 69.9701 210.5419 0002856 82.1661 277.9808 14.71831224386663 ORBCOMM FM 2 1 23546U 95017B 21099.80303006 .00000377 00000-0 73728-4 0 9991 2 23546 69.9716 225.6428 0004861 62.1579 298.0057 14.70758657386400 ORBCOMM FM 8 1 25112U 97084A 21100.15179631 .00000165 00000-0 98378-4 0 9997 2 25112 45.0158 94.9590 0005520 107.0943 253.0511 14.39228839220952 ORBCOMM FM 10 1 25113U 97084B 21099.85983494 .00000151 00000-0 93926-4 0 9991 2 25113 45.0170 97.8507 0003345 59.9555 300.1625 14.39226451395887 ORBCOMM FM 11 1 25114U 97084C 21100.15257017 .00000114 00000-0 82192-4 0 9995 2 25114 45.0155 95.8633 0004223 65.3212 294.8077 14.39158110220935 ORBCOMM FM 12 1 25115U 97084D 21099.70299993 .00000127 00000-0 86254-4 0 9990 2 25115 45.0162 97.6974 0003102 61.3672 298.7489 14.39177904220654 ORBCOMM FM 9 1 25116U 97084E 21099.70357282 .00000132 00000-0 88080-4 0 9992 2 25116 45.0163 98.2330 0004665 44.3034 315.8188 14.39184077220844 ORBCOMM FM 5 1 25117U 97084F 21099.95953453 .00000063 00000-0 66015-4 0 9999 2 25117 45.0163 97.2707 0000203 211.7327 148.3509 14.39165832219966 ORBCOMM FM 6 1 25118U 97084G 21099.87582181 .00000103 00000-0 78536-4 0 9993 2 25118 45.0160 97.2599 0000410 217.2014 215.7156 14.39212143220874 ORBCOMM FM 7 1 25119U 97084H 21099.68850245 .00000149 00000-0 93303-4 0 9991 2 25119 45.0154 98.4561 0001374 49.5300 310.5669 14.39189461220840 ORBCOMM FM 3 1 25158U 98007B 21100.17524585 .00000084 00000-0 83223-4 0 9990 2 25158 107.9963 248.4825 0047326 25.2082 335.1351 14.29658977205413 ORBCOMM FM 4 1 25159U 98007C 21100.17463596 .00000114 00000-0 94420-4 0 9990 2 25159 107.9951 250.5962 0042884 24.0752 336.2378 14.29943069205524 ORBCOMM FM 17 1 25413U 98046A 21099.77959861 .00000042 00000-0 68620-4 0 9997 2 25413 44.9951 243.6201 0002925 162.6879 197.4067 14.31037754183892 ORBCOMM FM 18 1 25414U 98046B 21099.70242377 .00000011 00000-0 54786-4 0 9992 2 25414 44.9947 190.9721 0005691 198.7939 161.2698 14.33131044184573 ORBCOMM FM 19 1 25415U 98046C 21099.69693436 .00000054 00000-0 70166-4 0 9994 2 25415 44.9953 191.6180 0004420 192.9679 293.2766 14.33097928184567 ORBCOMM FM 20 1 25416U 98046D 21099.75552480 .00000083 00000-0 80729-4 0 9993 2 25416 44.9950 191.6198 0001749 210.3955 149.6790 14.33072352184696 ORBCOMM FM 16 1 25417U 98046E 21099.81398928 .00000103 00000-0 87633-4 0 9990 2 25417 44.9952 191.2642 0005527 211.6077 148.4437 14.33349220184580 ORBCOMM FM 15 1 25418U 98046F 21099.70153392 .00000122 00000-0 94862-4 0 9996 2 25418 44.9982 193.7197 0005040 213.2799 302.4430 14.33148681184566 ORBCOMM FM 14 1 25419U 98046G 21099.70591601 .00000110 00000-0 90391-4 0 9996 2 25419 44.9976 193.4179 0003821 204.7792 313.0643 14.33161567184540 ORBCOMM FM 13 1 25420U 98046H 21099.64666055 .00000084 00000-0 81383-4 0 9998 2 25420 44.9984 195.3702 0005990 200.3177 159.7431 14.32981782183617 ORBCOMM FM 21 1 25475U 98053A 21100.18478460 .00000057 00000-0 71426-4 0 9996 2 25475 45.0094 276.4876 0000930 149.6471 210.4429 14.33065952178030 ORBCOMM FM 22 1 25476U 98053B 21099.80148027 .00000126 00000-0 96143-4 0 9996 2 25476 45.0090 277.7735 0002634 140.6327 219.4711 14.33177048177671 ORBCOMM FM 23 1 25477U 98053C 21099.94780882 .00000031 00000-0 62197-4 0 9990 2 25477 45.0096 279.4058 0001900 144.6731 215.4241 14.32928231178136 ORBCOMM FM 24 1 25478U 98053D 21099.88583034 .00000127 00000-0 96814-4 0 9993 2 25478 45.0095 280.2585 0001448 148.8265 211.2668 14.33067680177821 ORBCOMM FM 25 1 25479U 98053E 21100.48188619 .00000112 00000-0 91184-4 0 9992 2 25479 45.0086 275.8064 0004052 172.8685 187.2219 14.33081744178205 ORBCOMM FM 26 1 25480U 98053F 21099.88996360 .00000064 00000-0 74381-4 0 9991 2 25480 45.0080 270.0248 0006192 194.7130 165.3537 14.32868388178090 ORBCOMM FM 27 1 25481U 98053G 21099.88109592 .00000106 00000-0 89108-4 0 9995 2 25481 45.0069 278.7093 0000128 316.5461 43.5375 14.33047115178089 ORBCOMM FM 28 1 25482U 98053H 21099.62813658 .00000072 00000-0 75931-4 0 9994 2 25482 45.0074 223.3515 0005145 212.4367 147.6164 14.33718880178664 ORBCOMM FM 30 1 25980U 99065A 21099.67139137 .00000101 00000-0 87457-4 0 9998 2 25980 45.0325 95.3770 0008143 296.5607 63.4405 14.32993666114846 ORBCOMM FM 31 1 25981U 99065B 21099.65710825 .00000078 00000-0 79083-4 0 9995 2 25981 45.0238 90.1622 0005193 310.5068 49.5325 14.33009380114421 ORBCOMM FM 32 1 25982U 99065C 21099.70751291 -.00000012 00000-0 47424-4 0 9997 2 25982 45.0174 95.9481 0007602 318.8738 41.1534 14.32176289115174 ORBCOMM FM 33 1 25983U 99065D 21099.80857221 .00000043 00000-0 63809-4 0 9997 2 25983 45.0318 32.3215 0010533 323.2275 64.6805 14.35248375116113 ORBCOMM FM 36 1 25984U 99065E 21099.73004755 .00000233 00000-0 13519-3 0 9999 2 25984 45.0375 98.5169 0005123 248.4702 111.5599 14.33019262114839 ORBCOMM FM 35 1 25985U 99065F 21099.73632203 .00000122 00000-0 95222-4 0 9994 2 25985 45.0402 99.8291 0004521 311.9941 48.0520 14.33039005115198 ORBCOMM FM 34 1 25986U 99065G 21099.72013803 .00000044 00000-0 67032-4 0 9994 2 25986 45.0398 99.8695 0005708 277.0419 82.9779 14.32953793115349 ORBCOMM FM 38 1 33060U 08031A 21099.90148054 -.00000012 00000-0 28870-4 0 9999 2 33060 48.4446 343.7922 0006513 346.0508 14.0224 14.73764466688828 ORBCOMM FM 41 1 33061U 08031B 21099.87621479 .00000019 00000-0 33737-4 0 9997 2 33061 48.4481 348.5361 0005708 334.5311 78.3485 14.73608772688387 ORBCOMM FM 29 1 33062U 08031C 21100.16512632 -.00000007 00000-0 29885-4 0 9990 2 33062 48.4435 354.3816 0007696 334.8256 155.2945 14.73413683688703 ORBCOMM FM 39 1 33063U 08031D 21099.89009200 -.00000002 00000-0 30968-4 0 9999 2 33063 48.4447 9.9960 0008801 315.9702 44.0508 14.72800229688058 ORBCOMM FM 37 1 33064U 08031E 21100.12673796 .00000018 00000-0 33832-4 0 9995 2 33064 48.4440 0.1196 0007003 331.8873 173.4843 14.73038762688623 ORBCOMM FM 40 1 33065U 08031F 21099.90878751 .00000024 00000-0 34504-4 0 9991 2 33065 48.4465 356.9361 0008536 335.3164 123.7805 14.73596275688221 ORBCOMM FM 109 1 40086U 14040A 21100.11690940 -.00000004 00000-0 37231-4 0 9996 2 40086 47.0059 12.1911 0001415 143.2196 216.8785 14.54869001358378 ORBCOMM FM 107 1 40087U 14040B 21099.79593018 -.00000030 00000-0 31248-4 0 9997 2 40087 47.0078 14.3515 0001489 161.1361 198.9578 14.54875057358286 ORBCOMM FM 106 1 40088U 14040C 21099.88232580 -.00000006 00000-0 32967-4 0 9994 2 40088 47.0623 305.6373 0019250 197.0527 162.9716 14.64478642359116 ORBCOMM FM 111 1 40089U 14040D 21100.05389076 .00000042 00000-0 34578-4 0 9999 2 40089 47.0075 327.5945 0035431 137.5774 222.7868 14.77390892363693 ORBCOMM FM 104 1 40090U 14040E 21099.84602883 -.00000041 00000-0 29873-4 0 9991 2 40090 47.0076 31.1511 0017186 76.4729 283.8068 14.53478511358032 ORBCOMM FM 103 1 40091U 14040F 21100.16209378 -.00000020 00000-0 33588-4 0 9997 2 40091 47.0082 12.9331 0001440 133.7962 226.3042 14.54872937358359 ORBCOMM FM 114 1 41179U 15081A 21099.93595785 -.00000065 00000-0 23179-4 0 9997 2 41179 47.0030 283.7513 0002572 193.9081 166.1733 14.54863793281686 ORBCOMM FM 119 1 41180U 15081B 21099.68581301 -.00000037 00000-0 29744-4 0 9993 2 41180 47.0010 194.1440 0002627 259.5550 100.5038 14.54865881282840 ORBCOMM FM 105 1 41181U 15081C 21099.61497966 -.00000069 00000-0 25824-4 0 9990 2 41181 47.0025 62.8449 0002697 305.6686 54.3942 14.43438170279680 ORBCOMM FM 110 1 41182U 15081D 21099.98166164 -.00000048 00000-0 27160-4 0 9996 2 41182 47.0017 283.0661 0001126 1.9058 358.1830 14.54857188281680 ORBCOMM FM 118 1 41183U 15081E 21099.88976461 -.00000058 00000-0 24752-4 0 9990 2 41183 47.0038 283.5881 0000903 11.9035 348.1870 14.54880332281647 ORBCOMM FM 112 1 41184U 15081F 21099.73436458 -.00000001 00000-0 37950-4 0 9994 2 41184 46.9988 193.3599 0002865 246.0161 114.0424 14.54868349282835 ORBCOMM FM 113 1 41185U 15081G 21099.64246165 -.00000016 00000-0 34646-4 0 9994 2 41185 47.0011 193.8451 0002614 253.5290 106.5307 14.54870773282813 ORBCOMM FM 115 1 41186U 15081H 21099.63776826 -.00000089 00000-0 17455-4 0 9995 2 41186 46.9995 84.3157 0002064 278.8367 81.2285 14.58709622284278 ORBCOMM FM 108 1 41187U 15081J 21099.73778976 -.00000051 00000-0 26463-4 0 9993 2 41187 47.0042 104.2853 0001645 192.1428 167.9417 14.54867716283979 ORBCOMM FM 117 1 41188U 15081K 21100.11552164 -.00000045 00000-0 27793-4 0 9998 2 41188 47.0003 101.7890 0002575 201.1222 158.9556 14.54882142284083 ORBCOMM FM 116 1 41189U 15081L 21099.68836928 .00000004 00000-0 39273-4 0 9991 2 41189 47.0014 193.4752 0002904 245.7770 114.2811 14.54866478282822